GW0199 Weather Reports


time (UTC)temp
C
wind
direction
speed
KPH
gust
KPH
rain 1hr
cm
rain 24hr
cm
rain mn
cm
humidity
%
barometer
mb
20260504081516 20 45 1.6 4.8 0.00 0.00 0.00 75 1016.0
20260504080516 20 53 1.6 3.2 0.00 0.00 0.00 75 1015.9
20260504050516 21 0 0.0 0.0 0.00 0.00 0.00 72 1017.2
20260504045536 21 77 0.0 6.4 0.00 0.00 0.00 72 1017.1
20260504044536 21 67 1.6 6.4 0.00 0.00 0.00 72 1017.3
20260504043516 21 67 0.0 4.8 0.00 0.00 0.00 72 1017.3
20260504042516 21 69 1.6 6.4 0.00 0.00 0.00 72 1017.1
20260504041516 21 57 1.6 6.4 0.00 0.00 0.00 72 1017.4
20260504040516 21 77 1.6 4.8 0.00 0.00 0.00 72 1017.5
20260504035517 21 0 0.0 0.0 0.00 0.00 0.00 71 1017.6
20260504034516 21 25 0.0 1.6 0.00 0.00 0.00 71 1017.7
20260504033516 22 25 0.0 1.6 0.00 0.00 0.00 70 1017.6
20260504032538 22 0 0.0 3.2 0.00 0.00 0.00 69 1017.6
20260504031539 22 20 1.6 3.2 0.00 0.00 0.00 68 1017.6
20260504030516 22 11 1.6 4.8 0.00 0.00 0.00 68 1017.6
20260504025516 22 11 1.6 4.8 0.00 0.00 0.00 68 1017.4
20260504024516 22 31 1.6 6.4 0.00 0.00 0.00 68 1017.5
20260504023556 22 52 1.6 4.8 0.00 0.00 0.00 69 1017.3
20260504022516 22 30 1.6 4.8 0.00 0.00 0.00 68 1017.2
20260504021518 22 5 1.6 3.2 0.00 0.00 0.00 68 1017.1
20260504020516 22 25 1.6 3.2 0.00 0.03 0.00 68 1017.1
20260504015516 22 16 1.6 4.8 0.00 0.03 0.00 68 1016.8
20260504014518 22 35 1.6 4.8 0.00 0.03 0.00 68 1016.8
20260504013516 22 44 1.6 4.8 0.00 0.03 0.00 70 1016.6
20260504012516 22 27 1.6 3.2 0.00 0.03 0.00 69 1016.4
20260504011517 22 17 1.6 3.2 0.00 0.03 0.00 69 1016.4
20260504010516 22 145 1.6 4.8 0.00 0.03 0.00 69 1016.2
20260504005516 22 46 1.6 8.0 0.00 0.03 0.00 69 1016.1
20260504004517 22 319 1.6 6.4 0.00 0.03 0.00 69 1016.1
20260504003539 22 24 1.6 16.1 0.00 0.03 0.00 68 1015.9
20260504002536 22 25 1.6 9.7 0.00 0.03 0.00 68 1016.0
20260504001516 23 324 1.6 8.0 0.00 0.03 0.00 68 1015.9
20260504000516 23 327 1.6 6.4 0.00 0.03 0.00 68 1015.6
20260503235516 23 333 4.8 11.3 0.00 0.03 0.00 68 1015.7
20260503234516 23 356 3.2 12.9 0.00 0.03 0.00 67 1015.6
20260503233516 23 322 3.2 17.7 0.00 0.03 0.00 67 1015.7
20260503232517 23 349 3.2 11.3 0.00 0.03 0.00 67 1015.8
20260503231516 23 328 4.8 16.1 0.00 0.03 0.00 66 1015.7
20260503230517 24 10 3.2 12.9 0.00 0.03 0.00 66 1015.7
20260503225516 24 9 3.2 17.7 0.00 0.03 0.00 65 1015.7
20260503224516 25 321 4.8 16.1 0.00 0.03 0.00 64 1015.7
20260503223516 24 338 3.2 17.7 0.00 0.03 0.00 65 1015.7
20260503222516 25 13 3.2 8.0 0.00 0.03 0.00 64 1015.8
20260503221518 25 336 4.8 12.9 0.00 0.03 0.00 63 1015.7
20260503220536 25 338 3.2 12.9 0.00 0.03 0.00 62 1015.6
20260503215516 25 358 3.2 9.7 0.00 0.03 0.00 62 1015.8
20260503214536 26 308 4.8 16.1 0.00 0.03 0.00 61 1015.8
20260503213516 26 357 3.2 16.1 0.00 0.03 0.00 60 1015.7
20260503212516 26 331 4.8 14.5 0.00 0.03 0.00 59 1015.7
20260503211516 26 310 4.8 14.5 0.00 0.05 0.00 59 1015.8
20260503210516 26 340 4.8 14.5 0.00 0.05 0.00 60 1015.8
20260503205518 26 351 4.8 11.3 0.00 0.05 0.00 59 1015.8
20260503204516 27 303 4.8 16.1 0.00 0.08 0.00 58 1015.8
20260503203516 26 300 3.2 14.5 0.00 0.08 0.00 59 1015.9
20260503202516 27 1 3.2 16.1 0.00 0.10 0.00 59 1016.0
20260503201516 26 13 3.2 12.9 0.00 0.10 0.00 61 1016.0
20260503200516 26 353 3.2 8.0 0.00 0.13 0.00 58 1016.3
20260503195517 26 28 3.2 8.0 0.00 0.13 0.00 55 1016.5
20260503194558 26 12 3.2 8.0 0.00 0.15 0.00 56 1016.5
20260503193516 26 68 3.2 8.0 0.00 0.15 0.00 56 1016.6
20260503192516 26 55 1.6 11.3 0.00 0.15 0.00 57 1016.7
20260503191516 25 40 3.2 8.0 0.00 0.15 0.00 58 1017.1
20260503190516 26 58 3.2 9.7 0.00 0.23 0.00 57 1017.3
20260503185536 26 75 3.2 12.9 0.00 0.71 0.00 59 1017.5
20260503184516 25 22 4.8 11.3 0.00 0.84 0.00 59 1017.5
20260503183516 25 72 3.2 11.3 0.00 0.84 0.00 58 1017.7
20260503182516 25 56 3.2 8.0 0.00 0.84 0.00 60 1017.7
20260503181516 25 57 3.2 8.0 0.00 0.84 0.00 59 1017.8
20260503180516 25 38 3.2 12.9 0.00 0.84 0.00 58 1018.0
20260503175516 26 49 1.6 8.0 0.00 0.84 0.00 59 1018.1
20260503174516 25 18 3.2 11.3 0.00 0.84 0.00 59 1018.0
20260503173516 25 51 3.2 6.4 0.00 0.84 0.00 59 1018.1
20260503172516 25 77 3.2 8.0 0.00 0.84 0.00 60 1018.2
20260503171516 25 55 3.2 8.0 0.00 0.84 0.00 62 1018.4
20260503170516 24 66 3.2 11.3 0.00 0.84 0.00 62 1018.4
20260503150516 21 31 4.8 14.5 0.00 0.84 0.00 68 1018.7
20260503130536 18 46 3.2 6.4 0.00 0.84 0.00 80 1017.9
20260503110517 17 27 4.8 8.0 0.00 0.84 0.00 81 1016.3